Showing default

HISPASAT 36W-1, 41942

Orbit data source: Space-Track

HISPASAT 36W-1, 41942 is a payload satellite owned by Hispasat (ES) in GEO that was launched on Sat, 28 Jan 2017 UTC via a SOYUZ-ST-B launch vehicle from the French Guiana (FRGUI). Payload-class satellites include a variety of spacecraft equipped with specific instruments for various scientific and technological missions. These include communications satellites like Starlink; space stations such as the ISS; scientific satellites like the Hubble; Earth observation satellites from companies like Planet Labs, Umbra, and HawkEye 360; GPS; miniature CubeSats for education and research; and military/defense satellites.

Not visible in the next 10 days
Identifier
41942, 2017-006A
Orbit
GEO
Country
Flag of ESES / SPN
Related business
Manufacturer
OHB
Mission
Operational Commercial Communications
Bus & Motor
SMALLGEO, S400
Mass
3,220 kg wet, 1,700 kg dry
Launch date (UTC)
2017-01-28 (9 years ago)
Launch vehicle
SOYUZ-ST-B
Launch site
French Guiana (FRGUI)
Object type
Payload
Rocket body
Debris
Shape & HBR
Box + 2 Pan, 10.4 m
Radar Cross Section
23.149 m², Large (>1 m²)

Expand to show TLE details & history
Last TLE update: 5 hours ago

TLE from 5 hours ago
0 HISPASAT 36W-1
1 41942U 17006A   25311.16859604 -.00000238  00000-0  00000+0 0  9998
2 41942   0.0054 312.4450 0001013 262.8933 216.0149  1.00271587 32007
Epoch: 2025-11-07T04:02Z
TLE epoch observation values (Epoch: 2025-11-07T04:02:46.697Z)
Latitude
0.01611°
Longitude
-35.99778°
Altitude
35,789.618 km
Speed
3.074 km/s
True Right ascension
04h 45m 15s
True Declination
0° 00' 58"
Sunlit
Object was in daylight at epoch
Visualization orbit readout
Latitude
Unknown
Longitude
Unknown
Altitude
Unknown
Speed
Unknown
Apparent Right ascension
Unknown
Apparent Declination
Unknown
Sunlit
N/A
Visualization observer readout
Local Sidereal Time
04:44:46
Azimuth
Unknown
Elevation
Unknown
Doppler factor
Unknown
Orbital elements
Apogee altitude
35,791.992 km
Perigee altitude
35,783.449 km
Semi-major axis
42,165.858 km
Eccentricity
0.0001
Inclination
0.0054°
RAAN
312.445°
Arg. of periapsis
262.8933°
True anomaly
216.00808°
Mean anomaly
216.0149°
Eccentric anomaly
216.01149°
Mean motion
0.25067 °/min
Orbital period
1,436.15 mins
BSTAR
0
Loading maneuver chart data...
Computing Atmospheric mass density...
Loading historical data...
Loading historical data...
Loading historical data...
Loading historical data...
Loading historical data...
Loading historical data...
Loading historical data...
Other satellites on launch #6 in the year 2017 (2017-01-28 UTC)

Documentation

Showing up to 5 results
|